Regional Weather Roundup
Issued by NWS

Home | Current Version | Previous Version | Text Only | Print | Product List | Glossary Off
Versions: 1 2 3 4 5 6 7 8 9 10 11 12 13 14 15 16 17 18 19 20 21 22 23 24 25 26 27 28 29 30 31 32 33 34 35 36 37 38 39 40 41 42 43 44 45 46 47 48 49 50

000
ASUS43 KDTX 301101
RWRMI
MICHIGAN HOURLY REGIONAL WEATHER ROUNDUP
NATIONAL WEATHER SERVICE DETROIT/PONTIAC MI
700 AM EDT MON MAY 30 2016

NOTE: "FAIR" INDICATES FEW OR NO CLOUDS BELOW 12,000 FEET WITH NO
SIGNIFICANT WEATHER AND/OR OBSTRUCTION TO VISIBILITY.

MIZ047>049-052>055-059>063-066>070-074>076-081>083-301200-
SOUTHEAST LOWER MICHIGAN

CITY           SKY/WX    TMP DP  RH WIND       PRES   REMARKS
ADRIAN         PTCLDY    60  56  86 W5        30.02R
ALMA           CLEAR     57  56  95 CALM      29.99S
ANN ARBOR      CLEAR     59  56  89 SW3       30.00R
BAD AXE        CLEAR     61  59  94 W3        29.97R
CARO           CLEAR     58  56  93 CALM      29.97S
DETROIT CITY   PTCLDY    65  56  72 W6        29.99R
DETROIT        PTCLDY    63  57  81 SW5       30.00R
FLINT          CLEAR     65  56  72 W5        29.99R
GROSSE ILE     CLEAR     63  57  82 CALM      29.99R
HILLSDALE      CLEAR     63  55  73 CALM      30.02S
HOWELL         CLEAR     61  58  88 W5        30.00R

CITY           SKY/WX    TMP DP  RH WIND       PRES   REMARKS
JACKSON        CLEAR     60  57  89 SW3       30.01R
LAMBERTVILLE   CLEAR     63  57  83 CALM      30.01R
LANSING        CLEAR     62  56  80 W3        30.01R
LAPEER         FAIR      63  56  79 W3        29.99R
MASON          CLEAR     62  56  80 W5        30.01R
MONROE         CLEAR     61  58  88 W3        30.00R
MT. CLEMENS    CLEAR     65  58  79 SW6       29.97R
PONTIAC        PTCLDY    63  57  81 W7        29.99R
PORT HOPE        N/A     65  60  84 W7        29.94R
PORT HURON     CLEAR     57  57 100 CALM      29.98R
TRI CITIES     CLEAR     64  58  80 W7        29.98R
MIDLAND        FAIR      60  57  88 CALM      29.97R
TROY           CLEAR     66  57  72 W7        30.00R
SAGINAW HB     CLEAR     63  57  82 SW3       29.97S
$$
MIZ043>046-050>051-056>058-064>065-071>073-077>080-301200-
SOUTHWEST LOWER MICHIGAN

CITY           SKY/WX    TMP DP  RH WIND       PRES   REMARKS
BATTLE CREEK   CLEAR     60  57  89 S5        30.02R
BENTON HARBOR  CLEAR     61  56  83 W3        30.02R
BIG RAPIDS     CLEAR     57  56  97 CALM      29.98S
COLDWATER      CLEAR     59  56  91 W3        30.02S
FREMONT        FAIR      54  54 100 CALM      29.99S
HOLLAND        CLEAR     59  56  89 W6        30.02R
GRAND RAPIDS   PTCLDY    61  56  83 S3        30.01R
IONIA          FAIR      60  55  83 W3        30.00R
KALAMAZOO      CLEAR     59  55  87 CALM      30.03R
LUDINGTON      PTCLDY    52  52 100 CALM      29.99R
MARSHALL       CLEAR     61  57  86 CALM      30.01S
MOUNT PLEASANT CLEAR     62  58  87 CALM      29.98R
MUSKEGON       PTCLDY    56  52  86 CALM      30.00R
SOUTH HAVEN    CLEAR     58  57  97 CALM      30.02R
$$
MIZ016>042-301200-
NORTHERN LOWER MICHIGAN

CITY           SKY/WX    TMP DP  RH WIND       PRES   REMARKS
ALPENA         CLEAR     62  56  80 W6        29.92R
BEAVER ISLAND  CLEAR     53  52  99 W7        29.94R
BELLAIRE       CLEAR     60  55  84 W5        29.96R
CADILLAC       CLEAR     55  51  87 CALM      29.98R
CHARLEVOIX     CLEAR     58  54  86 W10       29.97R
FRANKFORT      PTCLDY    53  53  99 CALM      29.96R
GAYLORD        CLEAR     59  55  87 W8        29.95R
GRAYLING       CLEAR     59  57  91 W3        29.97R
HARBOR SPRINGS CLEAR     55  53  92 W3        29.94R
HOUGHTON LAKE  CLEAR     61  56  83 W8        29.97R
OSCODA         CLEAR     62  58  87 SW6       29.94R
PELLSTON       CLEAR     59  54  83 W5        29.93R
ROGERS CITY    CLOUDY    60  55  81 W7        29.92R
TRAVERSE CITY  PTCLDY    59  56  89 CALM      29.95R
$$
MIZ007>008-015-301200-
EASTERN UPPER MICHIGAN

CITY           SKY/WX    TMP DP  RH WIND       PRES   REMARKS
KINROSS          N/A     57  57 100 W8        29.90R
MACKINAC ISLAN PTCLDY    56  56 100 W15       29.90S
NEWBERRY       CLEAR     57  56  96 W7        29.91R
S. S. MARIE    CLOUDY    55  52  89 NW9       29.89R
MUNISING         N/A     57  54  89 SW6       29.90R
$$
MIZ004>006-011>014-085-301200-
CENTRAL UPPER MICHIGAN

CITY           SKY/WX    TMP DP  RH WIND       PRES   REMARKS
MANISTIQUE     CLEAR     58  56  94 W6        29.92R
ESCANABA         N/A     55  54  94 W7          N/A
MENOMINEE      CLEAR     55  55 100 CALM      29.97R
SAWYER-GWINN   PTCLDY    52  50  93 W3        29.93R
$$
MIZ001>003-009>011-084-301200-
WESTERN UPPER MICHIGAN

CITY           SKY/WX    TMP DP  RH WIND       PRES   REMARKS
IRON MOUNTAIN  CLEAR     56  52  86 W3        29.94R
HOUGHTON       CLEAR     54  51  90 W10       29.90R
COPPER HARBOR    N/A     60  53  77 VRB7      29.86R
IRONWOOD       CLEAR     48  46  93 W6        29.94R
$$

ABBREVIATIONS USED IN REMARKS
   TC - TEMPERATURE IN CELSIUS
  WCI - WIND CHILL INDEX
   HX - HEAT INDEX
  VSB - VISIBILITY





USA.gov is the U.S. government's official web portal to all federal, state and local government web resources and services.